Regional Weather Roundup
Issued by NWS

Home | Current Version | Previous Version | Graphics & Text | Print | Product List | Glossary Off
Versions: 1 2 3 4 5 6 7 8 9 10 11 12 13 14 15 16 17 18 19 20 21 22 23 24 25 26 27 28 29 30 31 32 33 34 35 36 37 38 39 40 41 42 43 44 45 46 47 48 49 50

000
ASUS43 KTOP 290259
RWRKS

WEATHER ROUNDUP FOR KANSAS
NATIONAL WEATHER SERVICE GOODLAND KS
1000 PM CDT MON JUL 28 2014

NOTE:  "FAIR" INDICATES FEW OR NO CLOUDS BELOW 12,000 FEET WITH NO
SIGNIFICANT WEATHER AND/OR OBSTRUCTIONS TO VISIBILITY.

KSZ001>006-013>018-027>032-041>047-290400-
NORTHWEST KANSAS

CITY           SKY/WX    TMP DP  RH WIND       PRES   REMARKS
GOODLAND       CLOUDY    70  55  59 S9        30.24S
HAYS           PTCLDY    75  57  53 SE9       30.19R
HILL CITY      PTCLDY    78  58  49 SE7       30.19R
RUSSELL        PTCLDY    74  57  55 E9        30.18R
$$

KSZ061>065-074>080-084>089-290400-
SOUTHWEST KANSAS

CITY           SKY/WX    TMP DP  RH WIND       PRES   REMARKS
DODGE CITY     PTCLDY    70  58  65 S7        30.23R
ELKHART          N/A     67  62  84 S6          N/A
GARDEN CITY    PTCLDY    67  59  75 S5        30.24R
GREAT BEND     PTCLDY    73  63  68 S6        30.18R
LIBERAL        MOCLDY    72  54  53 S3        30.26R
$$

KSZ066>073-081>083-090>101-290400-
SOUTHEAST KANSAS

CITY           SKY/WX    TMP DP  RH WIND       PRES   REMARKS
CHANUTE        CLEAR     73  57  57 NE7       30.16R
COFFEYVILLE    PTCLDY    73  60  63 NE6       30.13R
HUTCHINSON     PTCLDY    72  61  68 S5        30.18R
MEDICINE LODGE   N/A     77  60  55 N3        30.18R
NEWTON         CLEAR     73  52  46 NE5       30.21R
PARSONS        PTCLDY    69  59  70 NE3       30.16R
WICHITA INTL   PTCLDY    78  57  48 NE6       30.16R
WICHITA JABRA  PTCLDY    72  59  63 NE5       30.17R
WINFIELD       PTCLDY    72  58  61 CALM      30.17R
$$

KSZ007>012-019>026-033>040-048>060-102>105-290400-
NORTHEAST KANSAS

CITY           SKY/WX    TMP DP  RH WIND       PRES   REMARKS
CONCORDIA      PTCLDY    70  57  63 E6        30.20R
EMPORIA        CLEAR     70  56  61 NE7       30.17R
LAWRENCE       CLEAR     66  58  75 NW5       30.18R
MANHATTAN      CLEAR     72  57  59 N5        30.18R
OLATHE IND     CLEAR     66  59  78 N7        30.18R
OLATHE EXE     CLEAR     72  59  63 N5        30.17R
SALINA         CLEAR     79  54  41 NE9       30.18R
TOPEKA BILLARD CLEAR     70  58  65 N5        30.18R
TOPEKA FORBES  CLEAR     70  56  61 NE3       30.18R
$$


USA.gov is the U.S. government's official web portal to all federal, state and local government web resources and services.